SWR77M LSZH-LOWG

Flight info

Callsign SWR77M
Flight time 0h 53m
Altitude 33000
Route DEGES Z2 UMVEG DCT NAKUM DCT ABIRI ABIRI2M
Aircraft A320/M-SDE3FGHIRWY/LB1

Departure

Time 2026-05-06 15:11
Airport Zürich Airport (LSZH)

Arrival

Time 2026-05-06 16:05
Airport Graz Airport (LOWG)
Time Latitude Longitude Altitude Speed Heading
2026-05-06 14:55 47.45416 8.55872 1407 ft 0 kts 186°
2026-05-06 15:02 47.45426 8.55873 1414 ft 4 kts 184°
2026-05-06 15:03 47.45451 8.55875 1414 ft 4 kts 181°
2026-05-06 15:03 47.45478 8.55875 1411 ft 4 kts 175°
2026-05-06 15:03 47.45504 8.55870 1410 ft 4 kts 168°
2026-05-06 15:03 47.45530 8.55860 1413 ft 4 kts 161°
2026-05-06 15:04 47.45551 8.55850 1413 ft 2 kts 167°
2026-05-06 15:04 47.45563 8.55846 1416 ft 2 kts 174°
2026-05-06 15:04 47.45574 8.55845 1415 ft 2 kts 180°
2026-05-06 15:04 47.45579 8.55845 1411 ft 0 kts 182°
2026-05-06 15:06 47.45578 8.55845 1410 ft 1 kts 182°
2026-05-06 15:07 47.45555 8.55843 1410 ft 9 kts 182°
2026-05-06 15:07 47.45496 8.55927 1408 ft 18 kts 98°
2026-05-06 15:07 47.45490 8.56048 1407 ft 17 kts 98°
2026-05-06 15:07 47.45483 8.56197 1408 ft 12 kts 77°
2026-05-06 15:08 47.45516 8.56281 1412 ft 9 kts 51°
2026-05-06 15:08 47.45581 8.56404 1416 ft 20 kts 52°
2026-05-06 15:08 47.45589 8.56562 1420 ft 13 kts 96°
2026-05-06 15:08 47.45581 8.56664 1418 ft 7 kts 97°
2026-05-06 15:09 47.45574 8.56749 1423 ft 11 kts 96°
2026-05-06 15:09 47.45565 8.56869 1420 ft 10 kts 96°
2026-05-06 15:09 47.45559 8.56952 1420 ft 6 kts 96°
2026-05-06 15:09 47.45589 8.57016 1423 ft 10 kts 14°
2026-05-06 15:10 47.45636 8.57022 1425 ft 4 kts
2026-05-06 15:10 47.45662 8.57003 1425 ft 6 kts 288°
2026-05-06 15:10 47.45668 8.56932 1424 ft 7 kts 275°
2026-05-06 15:10 47.45674 8.56831 1422 ft 20 kts 275°
2026-05-06 15:11 47.45718 8.56226 1419 ft 95 kts 276°
2026-05-06 15:11 47.45810 8.54954 1410 ft 150 kts 272°
2026-05-06 15:11 47.45947 8.53358 1976 ft 156 kts 274°
2026-05-06 15:11 47.46050 8.51833 2961 ft 145 kts 273°
2026-05-06 15:12 47.46149 8.50386 3721 ft 141 kts 272°
2026-05-06 15:12 47.46245 8.48846 4152 ft 160 kts 269°
2026-05-06 15:12 47.45867 8.47234 4434 ft 181 kts 234°
2026-05-06 15:12 47.44827 8.45996 4722 ft 209 kts 202°
2026-05-06 15:13 47.43338 8.45999 5504 ft 226 kts 162°
2026-05-06 15:13 47.42117 8.47533 6454 ft 243 kts 123°
2026-05-06 15:13 47.41611 8.50011 7030 ft 268 kts 96°
2026-05-06 15:13 47.41553 8.52878 7449 ft 291 kts 92°
2026-05-06 15:14 47.41539 8.55930 8231 ft 300 kts 92°
2026-05-06 15:14 47.41541 8.59041 9162 ft 305 kts 92°
2026-05-06 15:14 47.41546 8.62197 10030 ft 310 kts 92°
2026-05-06 15:14 47.41545 8.65494 10443 ft 333 kts 92°
2026-05-06 15:15 47.41537 8.69025 10870 ft 351 kts 92°
2026-05-06 15:15 47.41526 8.72668 11615 ft 357 kts 92°
2026-05-06 15:15 47.41512 8.76351 12452 ft 360 kts 92°
2026-05-06 15:15 47.41495 8.80008 13277 ft 362 kts 93°
2026-05-06 15:16 47.41475 8.83785 14060 ft 365 kts 93°
2026-05-06 15:16 47.41457 8.87502 14766 ft 367 kts 93°
2026-05-06 15:16 47.41439 8.91289 15488 ft 370 kts 94°
2026-05-06 15:16 47.41420 8.95098 16191 ft 373 kts 94°
2026-05-06 15:17 47.41399 8.98938 16891 ft 376 kts 94°
2026-05-06 15:17 47.41373 9.02854 17588 ft 378 kts 94°
2026-05-06 15:17 47.41346 9.06718 18234 ft 382 kts 95°
2026-05-06 15:17 47.41316 9.10650 18824 ft 385 kts 95°
2026-05-06 15:18 47.41286 9.14610 19390 ft 388 kts 95°
2026-05-06 15:18 47.41275 9.18605 19947 ft 392 kts 92°
2026-05-06 15:18 47.41609 9.22640 20497 ft 401 kts 82°
2026-05-06 15:18 47.42232 9.26669 21035 ft 404 kts 81°
2026-05-06 15:19 47.42859 9.30735 21564 ft 408 kts 82°
2026-05-06 15:19 47.43486 9.34843 22111 ft 411 kts 82°
2026-05-06 15:19 47.44110 9.38975 22636 ft 414 kts 82°
2026-05-06 15:19 47.44740 9.43155 23140 ft 418 kts 82°
2026-05-06 15:20 47.45369 9.47357 23592 ft 421 kts 82°
2026-05-06 15:20 47.46002 9.51601 23959 ft 425 kts 82°
2026-05-06 15:20 47.46640 9.55886 24313 ft 429 kts 82°
2026-05-06 15:20 47.47073 9.60239 24675 ft 428 kts 91°
2026-05-06 15:21 47.47042 9.64619 25033 ft 426 kts 100°
2026-05-06 15:21 47.46797 9.69001 25391 ft 430 kts 100°
2026-05-06 15:21 47.46549 9.73427 25746 ft 434 kts 101°
2026-05-06 15:21 47.46302 9.77830 26109 ft 438 kts 101°
2026-05-06 15:22 47.46049 9.82336 26483 ft 442 kts 101°
2026-05-06 15:22 47.45795 9.86885 26833 ft 445 kts 101°
2026-05-06 15:22 47.45540 9.91460 27201 ft 449 kts 101°
2026-05-06 15:22 47.45283 9.96079 27562 ft 453 kts 101°
2026-05-06 15:23 47.45022 10.00734 27918 ft 456 kts 101°
2026-05-06 15:23 47.44754 10.05420 28271 ft 459 kts 101°
2026-05-06 15:23 47.44478 10.10147 28596 ft 463 kts 101°
2026-05-06 15:23 47.44196 10.14906 28938 ft 467 kts 101°
2026-05-06 15:24 47.43854 10.19419 29247 ft 465 kts 107°
2026-05-06 15:24 47.43237 10.24112 29484 ft 467 kts 108°
2026-05-06 15:24 47.42600 10.28830 29753 ft 470 kts 108°
2026-05-06 15:24 47.41957 10.33570 30057 ft 472 kts 108°
2026-05-06 15:25 47.41309 10.38336 30326 ft 475 kts 108°
2026-05-06 15:25 47.40660 10.43117 30591 ft 477 kts 108°
2026-05-06 15:25 47.40007 10.47935 30838 ft 479 kts 108°
2026-05-06 15:25 47.39348 10.52767 31070 ft 481 kts 108°
2026-05-06 15:26 47.38690 10.57544 31321 ft 482 kts 108°
2026-05-06 15:26 47.38020 10.62398 31724 ft 482 kts 108°
2026-05-06 15:26 47.37352 10.67232 32110 ft 481 kts 108°
2026-05-06 15:26 47.36683 10.72065 32483 ft 481 kts 108°
2026-05-06 15:27 47.36011 10.76896 32754 ft 481 kts 108°
2026-05-06 15:27 47.34678 10.86428 32804 ft 468 kts 109°
2026-05-06 15:28 47.33353 10.95781 32789 ft 465 kts 109°
2026-05-06 15:28 47.32022 11.05116 32785 ft 464 kts 109°
2026-05-06 15:29 47.30680 11.14434 32774 ft 465 kts 109°
2026-05-06 15:29 47.29341 11.23746 32765 ft 465 kts 109°
2026-05-06 15:30 47.27999 11.33054 32752 ft 462 kts 109°
2026-05-06 15:30 47.26645 11.42343 32741 ft 465 kts 110°
2026-05-06 15:31 47.25291 11.51594 32751 ft 466 kts 109°
2026-05-06 15:31 47.24163 11.61020 32732 ft 469 kts 105°
2026-05-06 15:32 47.22740 11.75345 32746 ft 472 kts 106°
2026-05-06 15:32 47.21721 11.84885 32734 ft 471 kts 107°
2026-05-06 15:33 47.20334 11.94198 32724 ft 461 kts 114°
2026-05-06 15:33 47.18604 12.03295 32743 ft 463 kts 113°
2026-05-06 15:34 47.16886 12.12445 32782 ft 467 kts 113°
2026-05-06 15:34 47.15169 12.21655 32794 ft 467 kts 113°
2026-05-06 15:35 47.13441 12.30828 32789 ft 466 kts 113°
2026-05-06 15:35 47.11690 12.39973 32773 ft 465 kts 113°
2026-05-06 15:36 47.09935 12.49111 32777 ft 465 kts 113°
2026-05-06 15:36 47.08181 12.58232 32775 ft 463 kts 113°
2026-05-06 15:37 47.06440 12.67272 32783 ft 464 kts 113°
2026-05-06 15:37 47.04667 12.76418 32787 ft 463 kts 113°
2026-05-06 15:38 47.02903 12.85452 32785 ft 464 kts 113°
2026-05-06 15:38 47.01124 12.94517 32791 ft 462 kts 113°
2026-05-06 15:39 46.99352 13.03550 32790 ft 461 kts 112°
2026-05-06 15:39 46.97573 13.12564 32807 ft 461 kts 112°
2026-05-06 15:40 46.95779 13.21574 32814 ft 461 kts 112°
2026-05-06 15:40 46.93982 13.30568 32818 ft 461 kts 112°
2026-05-06 15:41 46.92181 13.39565 32818 ft 460 kts 112°
2026-05-06 15:41 46.90375 13.48529 32819 ft 459 kts 112°
2026-05-06 15:42 46.88559 13.57498 32831 ft 460 kts 112°
2026-05-06 15:42 46.86731 13.66484 32803 ft 461 kts 112°
2026-05-06 15:43 46.85814 13.70982 32540 ft 462 kts 112°
2026-05-06 15:43 46.84898 13.75476 32273 ft 462 kts 112°
2026-05-06 15:43 46.83997 13.79985 32019 ft 463 kts 112°
2026-05-06 15:43 46.83078 13.84494 31751 ft 462 kts 112°
2026-05-06 15:44 46.82152 13.88969 31490 ft 460 kts 112°
2026-05-06 15:44 46.81220 13.93431 31238 ft 459 kts 112°
2026-05-06 15:44 46.80288 13.97880 30980 ft 458 kts 112°
2026-05-06 15:44 46.79362 14.02320 30723 ft 456 kts 112°
2026-05-06 15:45 46.78444 14.06741 30294 ft 454 kts 112°
2026-05-06 15:45 46.77530 14.11146 29642 ft 453 kts 112°
2026-05-06 15:45 46.76621 14.15528 29045 ft 449 kts 112°
2026-05-06 15:45 46.75719 14.19877 28457 ft 445 kts 112°
2026-05-06 15:46 46.74820 14.24174 27883 ft 441 kts 112°
2026-05-06 15:46 46.73924 14.28431 27319 ft 437 kts 112°
2026-05-06 15:46 46.73110 14.32690 26778 ft 436 kts 106°
2026-05-06 15:46 46.72753 14.37079 26266 ft 437 kts 96°
2026-05-06 15:47 46.72902 14.41506 25761 ft 436 kts 88°
2026-05-06 15:47 46.73189 14.45878 25264 ft 431 kts 89°
2026-05-06 15:47 46.73469 14.50212 24771 ft 426 kts 89°
2026-05-06 15:47 46.73735 14.54482 24294 ft 421 kts 89°
2026-05-06 15:48 46.73991 14.58707 23813 ft 417 kts 89°
2026-05-06 15:48 46.74244 14.62909 23300 ft 414 kts 89°
2026-05-06 15:48 46.74493 14.67071 22782 ft 410 kts 90°
2026-05-06 15:48 46.74737 14.71134 22310 ft 406 kts 89°
2026-05-06 15:49 46.74981 14.75214 21814 ft 402 kts 89°
2026-05-06 15:49 46.75222 14.79267 21325 ft 400 kts 89°
2026-05-06 15:49 46.75463 14.83294 20830 ft 397 kts 89°
2026-05-06 15:49 46.75702 14.87298 20328 ft 396 kts 89°
2026-05-06 15:50 46.75937 14.91288 19828 ft 394 kts 89°
2026-05-06 15:50 46.76154 14.93973 19491 ft 396 kts 83°
2026-05-06 15:50 46.76901 14.97897 18977 ft 399 kts 71°
2026-05-06 15:50 46.78146 15.01520 18508 ft 400 kts 60°
2026-05-06 15:51 46.79106 15.03874 18155 ft 399 kts 60°
2026-05-06 15:51 46.80516 15.07344 17710 ft 395 kts 60°
2026-05-06 15:51 46.81891 15.10740 17229 ft 392 kts 61°
2026-05-06 15:51 46.83270 15.14160 16767 ft 389 kts 61°
2026-05-06 15:52 46.84635 15.17556 16306 ft 387 kts 61°
2026-05-06 15:52 46.85990 15.20948 15846 ft 385 kts 61°
2026-05-06 15:52 46.87332 15.24314 15400 ft 383 kts 61°
2026-05-06 15:52 46.88775 15.27572 14958 ft 382 kts 51°
2026-05-06 15:53 46.90744 15.30147 14524 ft 380 kts 32°
2026-05-06 15:53 46.93121 15.31749 14097 ft 375 kts 13°
2026-05-06 15:53 46.95674 15.32262 13675 ft 369 kts 355°
2026-05-06 15:53 46.98189 15.31780 13207 ft 363 kts 345°
2026-05-06 15:54 47.00666 15.31086 12733 ft 361 kts 345°
2026-05-06 15:54 47.03127 15.30401 12272 ft 359 kts 345°
2026-05-06 15:54 47.05580 15.29724 11815 ft 357 kts 345°
2026-05-06 15:54 47.08011 15.29054 11353 ft 355 kts 345°
2026-05-06 15:55 47.10424 15.28372 10913 ft 352 kts 345°
2026-05-06 15:55 47.12818 15.27691 10479 ft 348 kts 345°
2026-05-06 15:55 47.15148 15.27046 10047 ft 333 kts 345°
2026-05-06 15:55 47.17372 15.26425 9598 ft 319 kts 345°
2026-05-06 15:56 47.19510 15.25829 9124 ft 307 kts 345°
2026-05-06 15:56 47.21586 15.25256 8847 ft 302 kts 346°
2026-05-06 15:56 47.23648 15.24855 8716 ft 298 kts 359°
2026-05-06 15:56 47.25619 15.25597 8579 ft 291 kts 24°
2026-05-06 15:57 47.27452 15.26767 8450 ft 280 kts 12°
2026-05-06 15:57 47.29332 15.27333 8138 ft 278 kts 14°
2026-05-06 15:57 47.30948 15.28905 7767 ft 281 kts 53°
2026-05-06 15:57 47.31649 15.31466 7636 ft 264 kts 91°
2026-05-06 15:58 47.31235 15.33971 7529 ft 248 kts 130°
2026-05-06 15:58 47.29973 15.35497 7344 ft 236 kts 163°
2026-05-06 15:58 47.28413 15.36063 7038 ft 229 kts 178°
2026-05-06 15:58 47.26838 15.36269 6711 ft 224 kts 178°
2026-05-06 15:59 47.25290 15.36629 6431 ft 228 kts 174°
2026-05-06 15:59 47.23718 15.37062 6092 ft 231 kts 173°
2026-05-06 15:59 47.22133 15.37522 5739 ft 230 kts 172°
2026-05-06 15:59 47.20591 15.37975 5416 ft 222 kts 172°
2026-05-06 16:00 47.19100 15.38407 5139 ft 214 kts 172°
2026-05-06 16:00 47.17661 15.38817 4872 ft 207 kts 172°
2026-05-06 16:00 47.16276 15.39209 4605 ft 199 kts 173°
2026-05-06 16:00 47.14928 15.39586 4349 ft 193 kts 173°
2026-05-06 16:01 47.13643 15.39947 4091 ft 184 kts 174°
2026-05-06 16:01 47.12412 15.40292 3836 ft 174 kts 172°
2026-05-06 16:01 47.11257 15.40614 3613 ft 167 kts 173°
2026-05-06 16:01 47.10127 15.40924 3409 ft 163 kts 173°
2026-05-06 16:02 47.09029 15.41232 3248 ft 157 kts 173°
2026-05-06 16:02 47.07955 15.41538 3181 ft 158 kts 172°
2026-05-06 16:02 47.06879 15.41843 2999 ft 155 kts 172°
2026-05-06 16:02 47.05877 15.42109 2810 ft 138 kts 175°
2026-05-06 16:03 47.04963 15.42355 2503 ft 132 kts 174°
2026-05-06 16:03 47.04061 15.42616 2156 ft 133 kts 175°
2026-05-06 16:03 47.03145 15.42864 1946 ft 134 kts 176°
2026-05-06 16:03 47.02222 15.43103 1670 ft 133 kts 174°
2026-05-06 16:04 47.01334 15.43351 1430 ft 127 kts 176°
2026-05-06 16:04 47.00466 15.43594 1182 ft 130 kts 174°
2026-05-06 16:04 46.99608 15.43832 1112 ft 116 kts 175°
2026-05-06 16:04 46.98976 15.43999 1106 ft 68 kts 168°
2026-05-06 16:05 46.98579 15.44109 1101 ft 52 kts 169°
2026-05-06 16:05 46.98258 15.44195 1095 ft 42 kts 168°
2026-05-06 16:05 46.98059 15.44248 1094 ft 21 kts 172°
2026-05-06 16:05 46.97951 15.44262 1093 ft 10 kts 175°
2026-05-06 16:06 46.97944 15.44298 1092 ft 1 kts 56°
2026-05-06 16:06 46.97955 15.44303 1092 ft 3 kts
2026-05-06 16:06 46.98023 15.44275 1093 ft 20 kts 344°
2026-05-06 16:06 46.98201 15.44209 1096 ft 32 kts 349°
2026-05-06 16:07 46.98411 15.44149 1100 ft 31 kts 350°
2026-05-06 16:07 46.98622 15.44096 1102 ft 31 kts 350°
2026-05-06 16:07 46.98840 15.44035 1101 ft 31 kts 349°
2026-05-06 16:07 46.99042 15.43983 1105 ft 28 kts 349°
2026-05-06 16:08 46.99207 15.43935 1107 ft 18 kts 351°
2026-05-06 16:08 46.99285 15.44012 1104 ft 14 kts 47°
2026-05-06 16:08 46.99357 15.44123 1108 ft 17 kts 47°
2026-05-06 16:08 46.99435 15.44242 1111 ft 15 kts 39°
2026-05-06 16:09 46.99535 15.44248 1113 ft 21 kts 349°
2026-05-06 16:09 46.99699 15.44202 1111 ft 23 kts 349°
2026-05-06 16:09 46.99797 15.44189 1116 ft 9 kts 24°
2026-05-06 16:09 46.99812 15.44247 1113 ft 4 kts 95°
2026-05-06 16:10 46.99792 15.44265 1109 ft 4 kts 166°
2026-05-06 16:10 46.99757 15.44275 1108 ft 5 kts 169°
2026-05-06 16:10 46.99734 15.44282 1110 ft 3 kts 169°
2026-05-06 16:10 46.99730 15.44283 1109 ft 0 kts 169°